Baku, Azerbaijan

6:32 AM +04 on June 23, 2018 (GMT +0400)
Bina

Weather History for UBBB - March, 2018

Change the Weather History Date:

Wednesday, March 28, 2018

  Actual Average Record
Temperature  
Mean Temperature 52 °F -  
Max Temperature 63 °F - - ()
Min Temperature 42 °F - - ()
Degree Days  
Heating Degree Days 12    
Growing Degree Days 2 (Base 50)    
Moisture  
Dew Point 46 °F    
Average Humidity 82    
Maximum Humidity 94    
Minimum Humidity 56    
Precipitation  
Precipitation 0.00 in - - ()
Sea Level Pressure  
Sea Level Pressure 29.90 in    
Wind  
Wind Speed 9 mph ()    
Max Wind Speed 16 mph    
Max Gust Speed -    
Visibility 6.1 miles    
Events      
T = Trace of Precipitation, MM = Missing Value Source: Averaged Metar Reports

Daily Weather History Graph

Daily Weather History Graph

Search for Another Location

Airport or City:

Astronomy

Mar. 28, 2018 Rise Set
Actual Time 6:30 AM +04 6:59 PM +04
Civil Twilight 6:03 AM +04 7:27 PM +04
Nautical Twilight 5:31 AM +04 7:59 PM +04
Astronomical Twilight 4:57 AM +04 8:32 PM +04
Moon 3:34 PM +04 (3/28) 4:47 AM +04 (3/28)
Length of Visible Light 13h 24m
Length of Day
12h 29m
Waxing Gibbous, 88% of the Moon is Illuminated
Mar 28
Waxing Gibbous
Mar 31
Full
Apr 8
Last Quarter
Apr 16
New
Apr 23
First Quarter

Hourly Weather History & Observations

Time (+04) Temp. Windchill Dew Point Humidity Pressure Visibility Wind Dir Wind Speed Gust Speed Precip Events Conditions
12:00 AM 42.8 °F 39.3 °F 39.2 °F 87% 29.92 in - SSE 5.8 mph - N/A   Clear
12:30 AM 44.6 °F 42.2 °F 39.2 °F 81% 29.89 in - SE 4.6 mph - N/A   Clear
1:00 AM 46 °F - 41 °F 75% 29.90 in 6 mi East 6.7 mph - -  
1:00 AM 42.8 °F 40.1 °F 41.0 °F 93% 29.89 in - ESE 4.6 mph - N/A   Clear
1:30 AM 44.6 °F 41.4 °F 41.0 °F 87% 29.89 in - SE 5.8 mph - N/A   Clear
2:00 AM 44.6 °F 39.7 °F 41.0 °F 87% 29.86 in - SE 9.2 mph - N/A   Clear
2:30 AM 44.6 °F 39.2 °F 42.8 °F 93% 29.86 in - SE 10.4 mph - N/A   Clear
3:00 AM 46.4 °F 41.9 °F 42.8 °F 87% 29.83 in - SSE 9.2 mph - N/A   Clear
3:30 AM 46.4 °F 41.1 °F 42.8 °F 87% 29.83 in - SE 11.5 mph - N/A   Clear
4:00 AM 48 °F - 44 °F 79% 29.84 in 6 mi Calm Calm - -  
4:00 AM 48.2 °F - 44.6 °F 87% 29.83 in - SE 12.7 mph - N/A   Clear
4:30 AM 48.2 °F - 46.4 °F 93% 29.83 in - SSE 11.5 mph - N/A   Clear
5:00 AM 48.2 °F - 44.6 °F 87% 29.83 in - SE 10.4 mph - N/A   Clear
5:30 AM 48.2 °F - 46.4 °F 93% 29.83 in - SE 9.2 mph - N/A   Clear
6:00 AM 48.2 °F - 46.4 °F 93% 29.83 in - SE 11.5 mph - N/A   Clear
6:30 AM 50.0 °F - 46.4 °F 87% 29.83 in - SSE 9.2 mph - N/A   Clear
7:00 AM 50.0 °F - 48.2 °F 94% 29.83 in - SE 8.1 mph - N/A   Clear
8:00 AM 53.6 °F - 50.0 °F 88% 29.83 in - SSE 9.2 mph - N/A   Clear
8:30 AM 55.4 °F - 50.0 °F 82% 29.83 in - South 15.0 mph - N/A   Clear
9:00 AM 57.2 °F - 50.0 °F 77% 29.83 in - South 13.8 mph - N/A   Clear
9:30 AM 57.2 °F - 50.0 °F 77% 29.86 in - South 11.5 mph - N/A   Clear
10:00 AM 60 °F - 51 °F 65% 29.85 in 6 mi SSE 13.4 mph - -  
10:00 AM 59.0 °F - 51.8 °F 77% 29.86 in - South 12.7 mph - N/A   Clear
10:30 AM 64.4 °F - 50.0 °F 59% 29.86 in - South 8.1 mph - N/A   Clear
11:00 AM 62.6 °F - 51.8 °F 68% 29.86 in - South 9.2 mph - N/A   Clear
11:30 AM 68.0 °F - 51.8 °F 56% 29.86 in - West 8.1 mph - N/A   Clear
12:00 PM 59.0 °F - 48.2 °F 67% 29.86 in - NW 11.5 mph - N/A   Clear
12:30 PM 59.0 °F - 48.2 °F 67% 29.86 in - NW 11.5 mph - N/A   Clear
1:00 PM 57 °F - 47 °F 61% 29.87 in 6 mi West 11.2 mph - -   Clear
1:00 PM 59.0 °F - 48.2 °F 67% 29.86 in - WNW 10.4 mph - N/A   Clear
1:30 PM 60.8 °F - 48.2 °F 63% 29.86 in - NW 11.5 mph - N/A   Clear
2:00 PM 60.8 °F - 48.2 °F 63% 29.86 in - NW 9.2 mph - N/A   Clear
2:30 PM 60.8 °F - 50.0 °F 68% 29.86 in - NW 10.4 mph - N/A   Clear
3:00 PM 59.0 °F - 48.2 °F 67% 29.86 in - NNW 10.4 mph - N/A   Clear
3:30 PM 55.4 °F - 46.4 °F 72% 29.86 in - NW 11.5 mph - N/A   Clear
4:00 PM 53 °F - 47 °F 72% 29.89 in 6 mi West 11.2 mph - -   Overcast
4:00 PM 53.6 °F - 46.4 °F 77% 29.89 in - NW 16.1 mph - N/A   Clear
4:30 PM 51.8 °F - 44.6 °F 76% 29.92 in 6.2 mi NW 13.8 mph - N/A   Mostly Cloudy
5:00 PM 50.0 °F - 44.6 °F 82% 29.95 in 6.2 mi NW 13.8 mph - N/A   Mostly Cloudy
5:30 PM 48.2 °F - 44.6 °F 87% 29.95 in 6.2 mi NNW 15.0 mph - N/A   Mostly Cloudy
6:00 PM 46.4 °F 39.8 °F 44.6 °F 93% 29.95 in 6.2 mi NW 16.1 mph - N/A   Overcast
6:30 PM 46.4 °F 40.4 °F 42.8 °F 87% 29.95 in 6.2 mi NNW 13.8 mph - N/A   Overcast
7:00 PM 45 °F - 42 °F 85% 29.97 in 6 mi WNW 15.7 mph - -   Overcast
7:00 PM 44.6 °F 37.4 °F 42.8 °F 93% 29.98 in 6.2 mi NW 16.1 mph - N/A   Overcast
7:30 PM 44.6 °F 37.4 °F 42.8 °F 93% 29.98 in 6.2 mi NNW 16.1 mph - N/A   Overcast
8:00 PM 46.4 °F 40.1 °F 44.6 °F 93% 30.01 in 6.2 mi NW 15.0 mph - N/A   Overcast
8:30 PM 46.4 °F 40.1 °F 44.6 °F 93% 30.04 in 6.2 mi NW 15.0 mph - N/A   Overcast
9:00 PM 46.4 °F 40.1 °F 44.6 °F 93% 30.04 in 6.2 mi NNW 15.0 mph - N/A   Overcast
9:30 PM 46.4 °F 40.1 °F 44.6 °F 93% 30.04 in 6.2 mi NNW 15.0 mph - N/A   Overcast
10:00 PM 46 °F - 44 °F 88% 30.05 in 6 mi WNW 8.9 mph - -   Overcast
10:00 PM 46.4 °F 39.8 °F 44.6 °F 93% 30.04 in 6.2 mi NNW 16.1 mph - N/A   Overcast
10:30 PM 46.4 °F 41.5 °F 44.6 °F 93% 30.04 in 6.2 mi NNW 10.4 mph - N/A   Overcast
11:00 PM 46.4 °F 40.7 °F 44.6 °F 93% 30.04 in 6.2 mi NNW 12.7 mph - N/A   Overcast
11:30 PM 46.4 °F 41.9 °F 44.6 °F 93% 30.04 in 6.2 mi NNW 9.2 mph - N/A   Overcast